TimeEDT,TemperatureF,Dew PointF,Humidity,Sea Level PressureIn,VisibilityMPH,Wind Direction,Wind SpeedMPH,Gust SpeedMPH,PrecipitationIn,Events,Conditions,WindDirDegrees,DateUTC
12:51 AM,77.0,73.0,88,30.12,10.0,Calm,Calm,-,N/A,,Partly Cloudy,0,2013-08-17 04:51:00
1:13 AM,77.0,73.4,89,30.11,10.0,NNW,4.6,-,N/A,,Scattered Clouds,330,2013-08-17 05:13:00
1:26 AM,75.2,73.4,94,30.11,10.0,NNW,5.8,-,N/A,,Mostly Cloudy,330,2013-08-17 05:26:00
1:51 AM,75.9,73.0,91,30.10,10.0,Variable,3.5,-,N/A,,Overcast,0,2013-08-17 05:51:00
2:06 AM,75.2,73.4,94,30.10,10.0,Variable,3.5,-,N/A,,Overcast,0,2013-08-17 06:06:00
2:51 AM,75.9,73.0,91,30.10,10.0,North,3.5,-,N/A,,Overcast,350,2013-08-17 06:51:00
3:32 AM,75.2,73.4,94,30.10,10.0,Calm,Calm,-,N/A,,Overcast,0,2013-08-17 07:32:00
3:51 AM,75.9,73.0,91,30.10,10.0,North,4.6,-,N/A,,Overcast,10,2013-08-17 07:51:00
4:13 AM,75.2,73.4,94,30.10,10.0,Variable,3.5,-,N/A,,Mostly Cloudy,0,2013-08-17 08:13:00
4:51 AM,75.9,73.0,91,30.10,10.0,North,3.5,-,N/A,,Scattered Clouds,10,2013-08-17 08:51:00
5:10 AM,75.2,73.4,94,30.10,10.0,NNE,3.5,-,N/A,,Scattered Clouds,30,2013-08-17 09:10:00
5:51 AM,75.9,73.0,91,30.11,10.0,NE,4.6,-,N/A,,Overcast,40,2013-08-17 09:51:00
6:51 AM,75.0,73.0,94,30.12,10.0,Variable,3.5,-,N/A,,Overcast,0,2013-08-17 10:51:00
7:51 AM,75.9,73.0,91,30.12,10.0,ENE,5.8,-,0.00,Rain,Light Rain,60,2013-08-17 11:51:00
8:51 AM,78.1,73.9,87,30.13,10.0,East,9.2,-,0.01,,Scattered Clouds,90,2013-08-17 12:51:00
9:51 AM,80.1,73.9,81,30.14,10.0,ESE,8.1,-,N/A,,Clear,110,2013-08-17 13:51:00
10:51 AM,81.0,73.9,79,30.16,10.0,ESE,5.8,-,N/A,,Overcast,120,2013-08-17 14:51:00
11:51 AM,82.0,73.0,74,30.14,10.0,East,5.8,-,0.00,,Mostly Cloudy,100,2013-08-17 15:51:00
12:51 PM,81.0,73.0,77,30.13,10.0,ESE,6.9,-,0.00,Rain,Light Rain,110,2013-08-17 16:51:00
1:51 PM,81.0,73.9,79,30.13,10.0,SE,6.9,-,0.00,,Overcast,130,2013-08-17 17:51:00
2:51 PM,81.0,73.9,79,30.11,10.0,ESE,9.2,-,0.00,,Overcast,120,2013-08-17 18:51:00
3:33 PM,78.8,73.4,83,30.11,1.8,SE,11.5,24.2,0.02,Rain,Heavy Rain,130,2013-08-17 19:33:00
3:47 PM,78.8,75.2,89,30.11,3.0,ESE,5.8,-,0.09,Rain,Rain,110,2013-08-17 19:47:00
3:51 PM,79.0,75.0,88,30.11,4.0,ESE,5.8,-,0.10,Rain,Light Rain,120,2013-08-17 19:51:00
4:31 PM,78.8,75.2,89,30.11,2.5,SE,5.8,-,0.08,Rain,Rain,140,2013-08-17 20:31:00
4:51 PM,78.1,75.0,90,30.10,2.0,SE,9.2,-,0.16,Rain,Heavy Rain,130,2013-08-17 20:51:00
5:19 PM,77.0,73.4,89,30.09,4.0,ESE,10.4,-,0.07,Rain,Light Rain,110,2013-08-17 21:19:00
5:51 PM,75.9,73.0,91,30.09,10.0,ESE,12.7,-,0.08,Rain,Light Rain,120,2013-08-17 21:51:00
6:51 PM,78.1,73.9,87,30.09,10.0,SE,12.7,-,0.00,Rain,Light Rain,130,2013-08-17 22:51:00
7:07 PM,78.8,73.4,83,30.10,10.0,SE,13.8,-,0.00,,Mostly Cloudy,130,2013-08-17 23:07:00
7:51 PM,78.1,73.9,87,30.10,7.0,SSE,10.4,-,0.01,Rain,Light Rain,150,2013-08-17 23:51:00
8:51 PM,78.1,75.0,90,30.10,8.0,SSE,8.1,-,0.02,Rain,Light Rain,160,2013-08-18 00:51:00
9:00 PM,78.8,75.2,89,30.10,1.8,SSE,5.8,-,0.04,Rain,Heavy Rain,160,2013-08-18 01:00:00
9:14 PM,77.0,73.4,89,30.11,1.8,WSW,6.9,-,0.17,Rain,Rain,240,2013-08-18 01:14:00
9:16 PM,77.0,73.4,89,30.11,1.2,WSW,6.9,-,0.17,Rain,Heavy Rain,250,2013-08-18 01:16:00
9:28 PM,77.0,73.4,89,30.11,1.5,SSE,8.1,16.1,0.47,Rain,Light Rain,160,2013-08-18 01:28:00
9:31 PM,77.0,73.4,89,30.11,3.0,SSE,9.2,16.1,0.47,Rain,Light Rain,160,2013-08-18 01:31:00
9:41 PM,77.0,75.2,94,30.11,3.0,SSE,8.1,-,0.50,Rain,Light Rain,160,2013-08-18 01:41:00
9:51 PM,77.0,75.0,94,30.11,6.0,South,5.8,-,0.50,,Overcast,170,2013-08-18 01:51:00
10:00 PM,78.8,75.2,89,30.11,9.0,South,12.7,20.7,N/A,,Overcast,190,2013-08-18 02:00:00
10:51 PM,79.0,75.9,90,30.10,10.0,South,13.8,19.6,0.03,Rain,Light Rain,180,2013-08-18 02:51:00
11:02 PM,78.8,75.2,89,30.10,10.0,South,13.8,-,N/A,,Mostly Cloudy,190,2013-08-18 03:02:00
11:51 PM,80.1,73.9,81,30.10,10.0,SW,13.8,-,N/A,,Scattered Clouds,220,2013-08-18 03:51:00